[Date Prev][Date Next][Thread Prev][Thread Next][Date Index][Thread Index]

[jamsat-news:1162] jas2info #158



========================   最新情報   ==============================

        Last updated :Wed.13-Oct.-1999 20:00 (JST) #158

====================================================================
   
     衛星情報 FOシリーズの軌道要素、テレメトリ、QSOの状況等を
   まとめてみました.

  1) おねがい
     9月24日(金)の熊本を直撃した台風18号(天草では風速66.2m)
   によりアンテナを上げているポールが真中より折れ、現在衛星のテレメトリ等
   の受信ができなくなっています.
   2、3ヶ月後に復旧する予定です.それまでFO−29(JAS-2、ふじ3号)の
   テレメトリ等取得できた方はjamsat-bb等に投稿していただければ分析結果を
   これまでどうり掲載できます.何卒ご協力方宜しくお願い申し上げます.
       
 ■ 軌道要素1:「jamsat−keps:930」より 
              SB KEPS @ AMSAT  $ORB99281.N
       2Line Orbital Elements 99281.AMSAT

 HR AMSAT ORBITAL ELEMENTS FOR AMATEUR SATELLITES IN NASA FORMAT
 FROM WA5QGD FORT WORTH,TX October 8, 1999
 SEND SUBSCRIBE/UNSUBSCRIBE TO majordomo@amsat.org ONLY
 BID: ORB99281.N

 DECODE 2-LINE ELSETS WITH THE FOLLOWING KEY:
 1 AAAAAU 00  0  0 BBBBB.BBBBBBBB  .CCCCCCCC  00000-0  00000-0 0  DDDZ
 2 AAAAA EEE.EEEE FFF.FFFF GGGGGGG HHH.HHHH III.IIII JJ.JJJJJJJJKKKKKZ
 KEY: A-CATALOGNUM B-EPOCHTIME C-DECAY D-ELSETNUM E-INCLINATION F-RAAN
 G-ECCENTRICITY H-ARGPERIGEE I-MNANOM J-MNMOTION K-ORBITNUM Z-CHECKSUM

 TO ALL RADIO AMATEURS BT
 
  FO-29
  1 24278U 96046B   99279.82655333  .00000060  00000-0  95811-4 0 03111
  2 24278 098.5732 216.1139 0351888 165.0369 196.1508 13.52679914154901
 
 ■ 軌道要素2:「jamsat−keps:931」より
                         
         SB KEPS @ AMSAT  $ORB99281.O
         Orbital Elements  99281.OSCAR

 HR AMSAT ORBITAL ELEMENTS FOR OSCAR SATELLITES
 FROM WA5QGD FORT WORTH,TX October 8, 1999
 SEND SUBSCRIBE/UNSUBSCRIBE TO majordomo@amsat.org ONLY
 BID: ORB99281.O
 TO ALL RADIO AMATEURS BT

   Satellite: FO-29
 Catalog number: 24278
 Epoch time:      99279.82655333
 Element set:    0311
 Inclination:      098.5732 deg
 RA of node:       216.1139 deg
 Eccentricity:    0.0351888
 Arg of perigee:   165.0369 deg
 Mean anomaly:     196.1508 deg
 Mean motion:   13.52679914 rev/day
 Decay rate:        6.0e-07 rev/day^2
 Epoch rev:           15490
 Checksum:              343
 -----------------------------------------------------------
  ===================================================================================
  -----------------------    FO-20(JAS-1b)道要素   -------------------------------
 
 ■ 軌道要素1 :出典はFO-29「ふじ3号」に同じ.
  
  FO-20
 1 20480U 90013C   99279.98147716 -.00000021  00000-0  34591-4 0 02078
 2 20480 099.0240 093.4158 0539756 271.1721 082.7625 12.83256033452673
 
 ■ 軌道要素2 :出典はFO-29「ふじ3号」に同じ.
               
  Satellite: FO-20
 Catalog number: 20480
 Epoch time:      99279.98147716
 Element set:    0207
 Inclination:      099.0240 deg
 RA of node:       093.4158 deg
 Eccentricity:    0.0539756
 Arg of perigee:   271.1721 deg
 Mean anomaly:     082.7625 deg
 Mean motion:   12.83256033 rev/day
 Decay rate:       -2.1e-07 rev/day^2
 Epoch rev:           45267
 Checksum:              316Satellite: FO-20
 
 ==================================================================================

 5)JARL のホームページに運用予定が記載されていましたのでご紹介します.
       ( http://www.jarl.or.jp/Japanese/3_Fuji/uy.htm )

        ■ ふじ3号/FOー29/JAS-2 ■  
  
  *** 運用予定について ***
    
   *10月08日 〜 10月18日     デジトーカ運用(予定変更:アナログ系運用)
    10月19日 〜 10月21日     アナログ系運用
    10月22日 〜 11月08日     デジトーカ運用
    11月09日 〜 11月15日     アナログ系運用 

  *:10月8日からデジトーカ運用の予定でしたが「ふじ3号」のコンピュータに
    メモリーエラーが発生したため,コンピュータのリセット,プログラムのロー
    ド作業を行います。
     アップロード作業が完了しだいデジトーカ運用を行いますのでしばらくの
    間,アナログ系運用といたします。

 ※なお,運用予定は都合により変更することがありますのでご了承願います。
 
  JAS−2ベリカードを希望の方へ
 「受信レポート」と住所,氏名を記入して80円切手を貼った返信用封筒を下記のところにお送り
 ください。
      〒170−8073 東京都豊島区巣鴨1−14−5
      (社)日本アマチュア無線連盟 技術研究所技術課
      「JASー2ベリカード希望」と記入してください。

 「受信レポート」の記入例
  1.日時 2.場所 3.受信強度 4.送信内容 5.使用した機種名 6.アンテナ 7.その他
   (:ご意見等)
  注)6.アンテナは「型番」ではなく,型式を記入してください。例:「何エレの八木アンテナ」, 
    「何段のGPアンテナ」・・・。
  7.ご意見,ご感想等お書きください。
  受信レポートの書式はA4版の用紙に記入してください。

  デジトーカの周波数は435.91MHzです。ハンディー機での受信も可能ですので是非トライして
 ください。

 ※受信方法はJARLNEWS9月号で紹介しています。

 照会先 : lab@jarl.or.jp
 
 最新の情報はテレホンサービス(:03−3942−1000)をお聞きください。
   
  以後の運用に付きましては11月8日(月)にお知らせいたします。
     
         ■ ふじ2号/FO−20/JAS-1b ■      
            
          「ふじ2号」 現況                                                                                  
             
   JAS-1b/FO-20(ふじ2号)の不具合発生について
    JAS-1b(ふじ2号)のCWテレメトリ信号に,1997年10月12日12時
 (JST)の日本上空通過時,3桁の数字が繰り返されるはずが3個の長音の
  繰り返しとなっているという異常が発見されました。この不具合は次の通過時
  からは回復していましたが13日15時20分の通過時に再び観測されました。
  衛星のアナログ系中継モード動作は異常が無く,正常時のテレメトリ内容からは
  衛星の動作に異常は認められません。従って,直ちに衛星のミッションに影響す
  ることは無いと予想されますので,当面はアナログ系中継モードを継続します。
  衛星は既に打ち上げてから7年8ヶ月を経ておりますので,今後は監視を強化す
  る予定です。アマチュア各位のレポートをお待ちします.   
  
  以上  http://www.jarl.or.jp/Japanese/3_Fuji/fuji.htm
                                           
   =============   JAS-2 (ふじ3号)と現在までの情報   ===========
  
  A.電話によるふじ3号の運用情報
      社団法人日本アマチュア連盟によるサービス
           TEL .   03− 3942 − 1000
  B.アマチュア無線FAXサービス
      JARLによるふじ3号の軌道情報(オービットカレンダー)
         FAX No.  03− 3233 −0055
  C.WWWブラウザで情報を簡単に見れる人のためにJAS−2
     ふじ3号の衛星としての運用されるまでの名前)の概要、打ち上げ
     までの状況、運用中における状況を説明したホームページを紹介し
     ておきます.
     社団法人日本アマチュア無線連盟(JARL)のホームページ

          http://www.jarl.or.jp/Japanese/3_Fuji
 
     宇宙開発事業団(NASDA)ホームページ 
          http://www.nasda.go.jp/
         打上げ衛星 :地球観測プラットフォーム技術衛星(ADEOS) 
                       アマチュア衛星3号(JAS-2)
          http://yyy.tksc.nasda.go.jp/Home/Press/Press-j/jas-2_j.html        

  D.JAMSATによる軌道情報の活用
        JAMSATのホームページまたはjamsat−kepsの軌道要素より
      衛星の軌道情報を得る.
     JAMSATホームページ
               URL    http://www.jamsat.or.jp
       上記ホームページでは各地で行われるアマチュア通信衛星に関する
      ミューティングのお知らせや世界のアマチュア衛星に関する情報が
      満載されています.
   
 =========================================================================
       JAMSATのメンバーのご協力によりJH6MME(高山 秀造)が
    執筆・編集を担当しております.ご指摘の意見、疑問やこのようにしたら
    というアイデアがありましたら小さなことでもかまいませんので気軽に下
    記アドレスまでご連絡ください.jamsat−newsからjas2
    infoへの転載をJH4PHW局坂井さんに担当して頂いております.
                    E-mail : jh6mme@jamsat.or.jp : jh4phw@jamsat.or.jp
 ===============================   END  ===============================